CW5307 Weather Reports


Display with metric or nautical units.
time (UTC)temp
F
wind
direction
speed
MPH
gust
MPH
rain 1hr
in
rain 24hr
in
rain mn
in
humidity
%
barometer
mb
20260507075241 54 327 0.0 6.0 0.00 0.18 0.00 86 1007.3
20260507074741 54 317 4.0 5.0 0.00 0.18 0.00 86 1007.3
20260507074247 55 312 3.0 4.0 0.00 0.18 0.00 86 1007.3
20260507073741 55 312 1.0 3.0 0.00 0.18 0.00 86 1007.3
20260507073244 54 311 0.0 6.0 0.00 0.18 0.00 85 1007.3
20260507072743 54 355 5.0 7.0 0.00 0.18 0.00 85 1007.2
20260507072244 55 13 1.0 8.0 0.00 0.18 0.00 85 1007.2
20260507071741 55 329 4.0 10.0 0.00 0.18 0.00 86 1007.2
20260507071244 55 348 8.0 9.0 0.00 0.18 0.00 86 1007.4
20260507070741 55 355 4.0 11.0 0.00 0.18 0.00 86 1007.4
20260507070241 55 15 1.0 11.0 0.00 0.18 0.00 87 1007.4
20260507065741 55 0 5.0 12.0 0.00 0.18 0.00 87 1007.5
20260507065241 55 10 1.0 9.0 0.00 0.18 0.00 87 1007.5
20260507064747 56 11 1.0 6.0 0.00 0.18 0.00 88 1007.5
20260507064249 56 11 1.0 5.0 0.00 0.18 0.00 88 1006.9
20260507063744 56 9 1.0 6.0 0.00 0.18 0.00 88 1006.9
20260507063244 56 9 1.0 8.0 0.00 0.18 0.00 88 1006.9
20260507062745 57 5 4.0 6.0 0.00 0.18 0.00 88 1007.4
20260507062241 57 5 2.0 5.0 0.00 0.18 0.00 88 1007.4
20260507061742 57 5 4.0 4.0 0.01 0.18 0.00 88 1007.4
20260507061248 57 5 0.0 4.0 0.01 0.18 0.00 88 1007.1
20260507060745 57 5 4.0 7.0 0.01 0.18 0.00 87 1007.1
20260507060242 57 0 4.0 6.0 0.01 0.18 0.00 87 1007.1
20260507055747 58 355 0.0 3.0 0.01 0.18 0.00 87 1007.4
20260507055244 58 355 0.0 4.0 0.01 0.18 0.00 87 1007.4
20260507054744 58 355 0.0 4.0 0.01 0.18 0.00 86 1007.4
20260507054241 58 355 0.0 4.0 0.01 0.18 0.00 85 1007.5
20260507053741 58 355 2.0 5.0 0.00 0.17 0.00 85 1007.5
20260507053243 58 350 4.0 5.0 0.00 0.17 0.00 84 1007.5
20260507052744 58 346 0.0 3.0 0.00 0.17 0.00 84 1007.4
20260507052241 59 346 0.0 3.0 0.00 0.17 0.00 84 1007.4
20260507051741 59 346 0.0 3.0 0.00 0.15 0.00 83 1007.4
20260507051241 59 346 3.0 9.0 0.00 0.15 0.00 83 1007.8
20260507050741 59 17 8.0 11.0 0.00 0.15 0.00 81 1007.8
20260507050242 60 329 1.0 6.0 0.00 0.15 0.00 80 1007.8
20260507045750 60 0 0.0 7.0 0.00 0.15 0.00 79 1007.3
20260507045247 60 340 5.0 6.0 0.00 0.15 0.00 77 1007.3
20260507044741 60 347 2.0 8.0 0.00 0.15 0.00 77 1007.3
20260507044241 60 5 8.0 9.0 0.00 0.15 0.00 76 1007.4
20260507043749 60 16 3.0 10.0 0.00 0.15 0.00 76 1007.4
20260507043241 61 0 4.0 6.0 0.00 0.15 0.00 75 1007.4
20260507042741 61 322 5.0 9.0 0.00 0.15 0.00 75 1007.5
20260507042241 62 349 2.0 13.0 0.00 0.15 0.00 75 1007.5
20260507041741 62 284 7.0 12.0 0.00 0.15 0.00 75 1007.5
20260507041242 62 344 1.0 7.0 0.00 0.15 0.00 75 1006.7
20260507040751 63 0 3.0 5.0 0.00 0.15 0.00 75 1006.7
20260507040241 63 0 1.0 6.0 0.00 0.15 0.00 75 1006.7
20260507035744 63 348 3.0 6.0 0.00 0.15 0.00 74 1006.5
20260507035249 63 355 3.0 6.0 0.00 0.15 0.00 74 1006.5
20260507034744 63 338 3.0 6.0 0.00 0.15 0.00 73 1006.5
20260507034242 63 340 3.0 5.0 0.00 0.15 0.00 73 1006.9
20260507033750 63 331 1.0 7.0 0.00 0.15 0.00 73 1006.9
20260507033245 63 338 4.0 8.0 0.00 0.15 0.00 73 1006.9
20260507032744 63 16 3.0 9.0 0.00 0.15 0.00 73 1006.6
20260507032247 63 350 1.0 5.0 0.00 0.15 0.00 73 1006.6
20260507031741 63 355 2.0 4.0 0.00 0.15 0.00 72 1006.6
20260507031248 63 355 3.0 6.0 0.00 0.15 0.00 72 1006.4
20260507030741 64 344 0.0 4.0 0.00 0.15 0.00 72 1006.4
20260507030244 64 344 0.0 6.0 0.00 0.15 0.00 72 1006.4
20260507025741 64 323 7.0 7.0 0.00 0.15 0.00 73 1006.3
20260507025244 64 9 4.0 6.0 0.00 0.15 0.00 73 1006.3
20260507024745 64 9 0.0 5.0 0.00 0.15 0.00 73 1006.3
20260507024244 64 13 4.0 9.0 0.00 0.15 0.00 73 1006.1
20260507023741 64 346 4.0 8.0 0.00 0.15 0.00 74 1006.1
20260507023248 65 355 6.0 12.0 0.00 0.15 0.00 74 1006.1
20260507022751 65 5 5.0 7.0 0.00 0.15 0.00 76 1005.9
20260507022244 65 0 2.0 12.0 0.00 0.15 0.00 77 1005.9
20260507021747 66 5 2.0 8.0 0.00 0.15 0.00 78 1005.9
20260507021241 66 10 1.0 9.0 0.00 0.15 0.00 78 1006.2
20260507020741 66 325 6.0 6.0 0.00 0.15 0.00 77 1006.2
20260507020247 67 307 4.0 5.0 0.00 0.15 0.00 77 1006.2
20260507015741 67 307 0.0 6.0 0.00 0.15 0.00 77 1005.7
20260507015247 67 307 1.0 3.0 0.00 0.15 0.00 77 1005.7
20260507014747 67 307 0.0 8.0 0.00 0.15 0.00 76 1005.7
20260507014241 67 286 0.0 3.0 0.00 0.15 0.00 76 1006.0
20260507013744 67 286 0.0 6.0 0.00 0.15 0.00 77 1006.0
20260507013241 67 286 2.0 8.0 0.00 0.15 0.00 77 1006.0
20260507012741 67 261 5.0 8.0 0.00 0.15 0.00 77 1006.3
20260507012244 68 230 3.0 6.0 0.00 0.15 0.00 77 1006.3
20260507011747 68 227 7.0 10.0 0.00 0.15 0.00 77 1006.3
20260507011241 68 171 2.0 4.0 0.00 0.15 0.00 77 1005.8
20260507010744 68 171 0.0 0.0 0.00 0.15 0.00 77 1005.8
20260507010244 68 171 0.0 0.0 0.00 0.15 0.00 77 1005.8
20260507005741 68 171 0.0 0.0 0.00 0.15 0.00 77 1005.8
20260507005247 68 171 0.0 0.0 0.00 0.15 0.00 76 1005.8
20260507004741 68 171 0.0 0.0 0.00 0.15 0.00 76 1005.8
20260507004250 68 171 0.0 0.0 0.00 0.15 0.00 76 1005.7
20260507003742 68 171 0.0 0.0 0.00 0.15 0.00 76 1005.7
20260507003244 68 171 0.0 2.0 0.00 0.15 0.00 76 1005.7
20260507002744 68 171 1.0 4.0 0.00 0.15 0.00 76 1005.3
20260507002241 68 171 2.0 4.0 0.00 0.15 0.00 75 1005.3
20260507001742 68 171 0.0 5.0 0.00 0.15 0.00 75 1005.3
20260507001244 69 171 0.0 2.0 0.00 0.15 0.00 75 1005.3
20260507000741 69 171 2.0 6.0 0.00 0.15 0.00 75 1005.3
20260507000247 69 172 0.0 2.0 0.00 0.15 0.00 75 1005.3
20260506235741 69 172 0.0 4.0 0.00 0.15 0.00 75 1005.1
20260506235247 69 172 0.0 4.0 0.00 0.15 0.00 74 1005.1
20260506234748 69 172 2.0 4.0 0.00 0.15 0.00 74 1005.1
20260506234241 69 172 2.0 7.0 0.00 0.15 0.00 74 1005.2
20260506233741 69 175 2.0 5.0 0.00 0.15 0.00 74 1005.2
20260506233244 69 175 1.0 4.0 0.00 0.15 0.00 73 1005.2
20260506232745 69 175 2.0 4.0 0.00 0.15 0.00 73 1004.7
20260506232244 70 175 4.0 5.0 0.00 0.15 0.00 73 1004.7
20260506231744 70 175 0.0 0.0 0.00 0.15 0.00 73 1004.7
20260506231245 70 175 0.0 2.0 0.00 0.15 0.00 73 1004.8
20260506230745 70 175 2.0 5.0 0.00 0.15 0.00 73 1004.8
20260506230247 70 175 1.0 6.0 0.00 0.15 0.00 72 1004.8
20260506225744 70 179 1.0 6.0 0.00 0.15 0.00 72 1004.5
20260506225248 70 180 4.0 5.0 0.00 0.15 0.00 72 1004.5
20260506224750 70 179 4.0 6.0 0.00 0.15 0.00 72 1004.5
20260506224251 70 179 4.0 5.0 0.00 0.15 0.00 71 1004.7
20260506223741 70 179 1.0 4.0 0.00 0.15 0.00 71 1004.7
20260506223241 70 180 1.0 5.0 0.00 0.15 0.00 71 1004.7
20260506222741 70 179 5.0 5.0 0.00 0.15 0.00 71 1004.8
20260506222241 70 180 1.0 5.0 0.00 0.15 0.00 70 1004.8
20260506221744 71 180 2.0 5.0 0.00 0.15 0.00 70 1004.8
20260506221244 71 180 2.0 5.0 0.00 0.15 0.00 70 1004.7
20260506220741 71 180 2.0 5.0 0.00 0.15 0.00 71 1004.7
20260506220241 71 179 4.0 7.0 0.00 0.15 0.00 71 1004.7
20260506215742 71 165 0.0 5.0 0.00 0.15 0.00 70 1004.7
20260506215247 71 165 1.0 5.0 0.00 0.15 0.00 70 1004.7
20260506214741 71 165 4.0 6.0 0.00 0.15 0.00 70 1004.7
20260506214245 71 165 5.0 7.0 0.00 0.15 0.00 71 1004.5
20260506213750 71 152 0.0 7.0 0.00 0.15 0.00 70 1004.5
20260506213247 71 150 4.0 6.0 0.00 0.15 0.00 70 1004.5
20260506212741 71 158 5.0 6.0 0.00 0.15 0.00 70 1004.5
20260506212250 71 158 2.0 7.0 0.00 0.15 0.00 70 1004.5
20260506211742 71 163 1.0 5.0 0.00 0.15 0.00 70 1004.5
20260506211241 70 165 5.0 8.0 0.00 0.15 0.00 70 1004.2
20260506210744 70 200 0.0 13.0 0.00 0.15 0.00 70 1004.2
20260506210244 70 169 4.0 8.0 0.00 0.15 0.00 71 1004.2
20260506205741 70 162 4.0 7.0 0.00 0.15 0.00 71 1004.1
20260506205241 70 154 1.0 5.0 0.00 0.15 0.00 71 1004.1
20260506204744 70 154 2.0 8.0 0.00 0.15 0.00 70 1004.1
20260506204244 70 151 2.0 8.0 0.00 0.15 0.00 70 1004.2
20260506203744 71 197 3.0 7.0 0.00 0.15 0.00 69 1004.2
20260506203247 71 235 3.0 5.0 0.00 0.15 0.00 70 1004.2
20260506202742 71 211 3.0 7.0 0.00 0.15 0.00 69 1004.1
20260506202245 71 216 2.0 9.0 0.00 0.15 0.00 69 1004.1
20260506201741 71 180 2.0 7.0 0.00 0.15 0.00 69 1004.1
20260506201242 71 286 2.0 7.0 0.00 0.15 0.00 69 1004.2
20260506200741 71 142 5.0 9.0 0.00 0.15 0.00 69 1004.2
20260506200243 71 223 5.0 8.0 0.00 0.15 0.00 70 1004.2
20260506195741 71 211 3.0 10.0 0.00 0.15 0.00 70 1004.2
20260506195247 70 125 2.0 11.0 0.00 0.15 0.00 71 1004.2
20260506194741 70 169 5.0 8.0 0.00 0.15 0.00 72 1004.2
20260506194251 70 235 4.0 10.0 0.00 0.15 0.00 74 1004.2
20260506193742 69 182 3.0 10.0 0.00 0.15 0.00 75 1004.2
20260506193241 69 269 2.0 7.0 0.00 0.15 0.00 76 1004.2
20260506192741 69 218 3.0 11.0 0.00 0.15 0.00 77 1004.3
20260506192241 68 271 3.0 7.0 0.00 0.15 0.00 79 1004.3
20260506191744 68 165 2.0 8.0 0.00 0.15 0.00 79 1004.3
20260506191244 67 150 4.0 7.0 0.00 0.15 0.00 80 1004.6
20260506190741 67 161 5.0 8.0 0.00 0.15 0.00 81 1004.6
20260506190241 67 171 1.0 6.0 0.00 0.15 0.00 82 1004.6
20260506185741 67 196 6.0 9.0 0.00 0.15 0.00 83 1004.8
20260506185241 66 152 8.0 10.0 0.00 0.15 0.00 83 1004.8
20260506184744 66 175 5.0 10.0 0.00 0.15 0.00 84 1004.8
20260506184241 66 145 4.0 10.0 0.00 0.15 0.00 85 1004.8
20260506183741 66 277 6.0 7.0 0.00 0.15 0.00 86 1004.8
20260506183241 65 257 0.0 10.0 0.00 0.15 0.00 86 1004.8
20260506182748 65 232 4.0 9.0 0.00 0.15 0.00 87 1005.0
20260506182242 65 296 2.0 9.0 0.00 0.15 0.00 88 1005.0
20260506181742 64 178 5.0 11.0 0.00 0.15 0.00 88 1005.0
20260506181241 64 213 2.0 10.0 0.00 0.15 0.00 88 1005.1
20260506180744 64 206 5.0 12.0 0.01 0.15 0.00 88 1005.1
20260506180241 64 159 2.0 10.0 0.01 0.15 0.00 89 1005.1
20260506175744 64 311 3.0 8.0 0.01 0.15 0.00 89 1005.1
20260506175247 64 128 4.0 11.0 0.01 0.15 0.00 89 1005.1
20260506174745 63 244 7.0 10.0 0.00 0.14 0.00 89 1005.1
20260506174241 63 207 5.0 12.0 0.00 0.14 0.00 90 1005.1
20260506173744 63 248 3.0 12.0 0.01 0.14 0.00 90 1005.1
20260506173244 63 137 5.0 10.0 0.01 0.14 0.00 90 1005.1
20260506172744 63 202 5.0 12.0 0.01 0.14 0.00 90 1005.3
20260506172244 63 181 5.0 12.0 0.01 0.14 0.00 91 1005.3
20260506171744 63 245 6.0 16.0 0.02 0.14 0.00 91 1005.3
20260506171244 63 279 4.0 11.0 0.02 0.14 0.00 91 1005.3
20260506170748 63 169 4.0 9.0 0.01 0.13 0.00 91 1005.3
20260506170245 63 300 8.0 10.0 0.01 0.13 0.00 91 1005.3
20260506165741 63 250 5.0 14.0 0.02 0.13 0.00 91 1005.6
20260506165242 62 228 3.0 12.0 0.02 0.13 0.00 91 1005.6
20260506164744 62 311 1.0 12.0 0.02 0.13 0.00 91 1005.6
20260506164241 62 163 6.0 11.0 0.03 0.13 0.00 91 1005.5
20260506163741 62 217 2.0 14.0 0.02 0.12 0.00 91 1005.5
20260506163242 62 221 5.0 13.0 0.02 0.12 0.00 91 1005.5
20260506162741 62 218 4.0 9.0 0.02 0.12 0.00 91 1005.6
20260506162241 62 231 6.0 13.0 0.03 0.12 0.00 90 1005.6
20260506161741 62 300 3.0 14.0 0.02 0.11 0.00 90 1005.6
20260506161241 62 186 7.0 12.0 0.03 0.11 0.00 90 1005.6
20260506160744 62 205 8.0 15.0 0.03 0.11 0.00 90 1005.6
20260506160241 62 187 4.0 16.0 0.03 0.11 0.00 90 1005.6
20260506155745 62 210 8.0 12.0 0.03 0.10 0.00 90 1005.7
20260506155241 62 190 1.0 9.0 0.03 0.10 0.00 90 1005.7
20260506154747 62 107 4.0 8.0 0.03 0.10 0.00 90 1005.7
20260506154241 62 115 8.0 11.0 0.03 0.09 0.00 90 1005.7
20260506153744 62 88 1.0 6.0 0.03 0.09 0.00 90 1005.7
20260506153248 62 171 2.0 10.0 0.03 0.09 0.00 90 1005.7
20260506152747 62 168 1.0 8.0 0.04 0.09 0.00 89 1006.2
20260506152244 62 188 5.0 12.0 0.03 0.08 0.00 89 1006.2
20260506151747 62 177 5.0 8.0 0.03 0.08 0.00 89 1006.2
20260506151244 62 150 5.0 12.0 0.03 0.07 0.00 89 1006.3
20260506150742 62 190 3.0 12.0 0.03 0.07 0.00 89 1006.3
20260506150247 62 142 1.0 10.0 0.03 0.07 0.00 88 1006.3
20260506145741 62 161 2.0 11.0 0.02 0.06 0.00 88 1006.6
20260506145241 61 231 2.0 11.0 0.02 0.06 0.00 88 1006.6
20260506144747 62 243 0.0 17.0 0.03 0.06 0.00 88 1006.6
20260506144241 62 225 1.0 14.0 0.02 0.05 0.00 87 1006.2
20260506143749 62 171 2.0 9.0 0.02 0.05 0.00 87 1006.2
20260506143248 62 217 2.0 13.0 0.02 0.05 0.00 87 1006.2
20260506142741 62 204 0.0 12.0 0.02 0.04 0.00 87 1006.2
20260506142242 62 147 5.0 9.0 0.02 0.04 0.00 86 1006.2
20260506141741 62 175 2.0 9.0 0.02 0.04 0.00 86 1006.2
20260506141241 62 179 9.0 9.0 0.01 0.03 0.00 86 1006.6
20260506140741 62 146 1.0 8.0 0.01 0.03 0.00 85 1006.6
20260506140247 62 215 6.0 9.0 0.01 0.03 0.00 85 1006.6
20260506135741 63 178 4.0 11.0 0.02 0.03 0.00 84 1006.7
20260506135241 63 196 2.0 14.0 0.02 0.03 0.00 84 1006.7
20260506134744 63 157 1.0 8.0 0.01 0.02 0.00 84 1006.7
20260506134241 63 163 0.0 11.0 0.02 0.02 0.00 83 1007.1
20260506133741 63 194 2.0 9.0 0.02 0.02 0.00 83 1007.1
20260506133247 63 129 2.0 9.0 0.02 0.02 0.00 82 1007.1
20260506132744 63 178 4.0 9.0 0.01 0.01 0.00 81 1006.8
20260506132245 64 236 4.0 9.0 0.01 0.01 0.00 81 1006.8
20260506131744 64 118 1.0 7.0 0.01 0.01 0.00 81 1006.8
20260506131248 64 153 0.0 5.0 0.01 0.01 0.00 80 1006.4
20260506130744 64 150 4.0 7.0 0.01 0.01 0.00 80 1006.4
20260506130241 64 163 2.0 8.0 0.01 0.01 0.00 79 1006.4
20260506125742 64 213 2.0 11.0 0.00 0.00 0.00 78 1006.3
20260506125247 64 155 1.0 7.0 0.00 0.00 0.00 78 1006.3
20260506124741 64 182 1.0 6.0 0.00 0.00 0.00 77 1006.3
20260506124241 64 154 2.0 7.0 0.00 0.00 0.00 76 1006.4
20260506123742 65 145 0.0 11.0 0.00 0.00 0.00 75 1006.4
20260506123241 65 138 4.0 10.0 0.00 0.00 0.00 75 1006.4
20260506122747 65 162 6.0 8.0 0.00 0.00 0.00 74 1006.9
20260506122241 65 209 1.0 10.0 0.00 0.00 0.00 73 1006.9
20260506121741 65 213 3.0 10.0 0.00 0.00 0.00 73 1006.9
20260506121244 65 236 5.0 10.0 0.00 0.00 0.00 72 1006.8
20260506120741 66 146 4.0 8.0 0.00 0.00 0.00 71 1006.8
20260506120241 66 198 8.0 9.0 0.00 0.00 0.00 70 1006.8
20260506115741 66 179 2.0 9.0 0.00 0.00 0.00 69 1006.7
20260506115244 66 191 2.0 11.0 0.00 0.00 0.00 68 1006.7
20260506114751 66 166 4.0 10.0 0.00 0.00 0.00 67 1006.7
20260506114242 66 232 4.0 9.0 0.00 0.00 0.00 67 1006.4
20260506113748 66 273 1.0 16.0 0.00 0.00 0.00 67 1006.4
20260506113244 66 138 4.0 12.0 0.00 0.00 0.00 67 1006.4
20260506112742 66 266 6.0 12.0 0.00 0.00 0.00 67 1006.3
20260506112241 66 166 10.0 14.0 0.00 0.00 0.00 67 1006.3
20260506111742 66 207 5.0 15.0 0.00 0.00 0.00 67 1006.3
20260506111241 66 206 3.0 12.0 0.00 0.00 0.00 67 1006.1
20260506110747 66 297 5.0 15.0 0.00 0.00 0.00 67 1006.1
20260506110245 66 239 3.0 12.0 0.00 0.00 0.00 67 1006.1
20260506105741 66 153 1.0 16.0 0.00 0.00 0.00 67 1005.9
20260506105241 66 185 5.0 12.0 0.00 0.00 0.00 67 1005.9
20260506104741 66 215 4.0 12.0 0.00 0.00 0.00 67 1005.9
20260506104241 66 196 5.0 7.0 0.00 0.00 0.00 67 1005.8
20260506103742 66 194 4.0 12.0 0.00 0.00 0.00 67 1005.8
20260506103244 66 154 4.0 12.0 0.00 0.00 0.00 67 1005.8
20260506102741 66 167 7.0 15.0 0.00 0.00 0.00 67 1005.9
20260506102247 66 232 6.0 13.0 0.00 0.00 0.00 67 1005.9
20260506101741 66 113 4.0 16.0 0.00 0.00 0.00 67 1005.9
20260506101241 66 202 14.0 15.0 0.00 0.00 0.00 66 1005.8
20260506100745 66 294 6.0 12.0 0.00 0.00 0.00 66 1005.8
20260506100244 66 176 6.0 13.0 0.00 0.00 0.00 66 1005.8
20260506095744 66 261 4.0 12.0 0.00 0.00 0.00 66 1006.0
20260506095241 66 159 2.0 11.0 0.00 0.00 0.00 66 1006.0
20260506094742 66 258 8.0 12.0 0.00 0.00 0.00 65 1006.0
20260506094245 66 156 1.0 9.0 0.00 0.00 0.00 65 1006.1
20260506093746 66 189 5.0 14.0 0.00 0.00 0.00 65 1006.1
20260506093244 66 182 7.0 17.0 0.00 0.00 0.00 65 1006.1
20260506092741 66 140 4.0 15.0 0.00 0.00 0.00 64 1006.0
20260506092247 67 219 8.0 12.0 0.00 0.00 0.00 64 1006.0
20260506091744 67 188 5.0 14.0 0.00 0.00 0.00 64 1006.0
20260506091247 67 198 4.0 11.0 0.00 0.00 0.00 63 1006.2
20260506090747 67 215 4.0 14.0 0.00 0.00 0.00 63 1006.2
20260506090241 67 206 6.0 14.0 0.00 0.00 0.00 62 1006.2
20260506085744 67 148 1.0 10.0 0.00 0.00 0.00 62 1006.3
20260506085245 67 175 7.0 11.0 0.00 0.00 0.00 62 1006.3
20260506084747 68 323 4.0 8.0 0.00 0.00 0.00 61 1006.3
20260506084241 68 209 3.0 11.0 0.00 0.00 0.00 61 1006.4
20260506083744 68 255 5.0 10.0 0.00 0.00 0.00 61 1006.4
20260506083244 68 182 7.0 9.0 0.00 0.00 0.00 60 1006.4
20260506082745 68 240 8.0 12.0 0.00 0.00 0.00 60 1006.2
20260506082241 68 178 4.0 7.0 0.00 0.00 0.00 59 1006.2
20260506081747 68 254 4.0 13.0 0.00 0.00 0.00 59 1006.2
20260506081242 68 269 6.0 11.0 0.00 0.00 0.00 58 1006.1
20260506080741 68 173 4.0 13.0 0.00 0.00 0.00 58 1006.1
20260506080244 68 149 1.0 9.0 0.00 0.00 0.00 58 1006.1